| time (UTC) | temp F | wind direction | speed knots | gust knots | rain 1hr in | rain 24hr in | rain mn in | humidity % | barometer mb |
| 20260507213025 | 89 | 265 | 5.2 | 11.3 | 0.00 | 0.00 | 0.00 | 50 | 1040.6 |
| 20260507212524 | 89 | 262 | 5.2 | 11.3 | 0.00 | 0.00 | 0.00 | 47 | 1040.6 |
| 20260507212026 | 89 | 270 | 5.2 | 10.4 | 0.00 | 0.00 | 0.00 | 46 | 1040.6 |
| 20260507211532 | 89 | 263 | 3.5 | 10.4 | 0.00 | 0.00 | 0.00 | 46 | 1040.7 |
| 20260507211023 | 90 | 298 | 3.5 | 9.6 | 0.00 | 0.00 | 0.00 | 43 | 1040.8 |
| 20260507210526 | 89 | 282 | 5.2 | 9.6 | 0.00 | 0.00 | 0.00 | 43 | 1040.9 |
| 20260507210023 | 90 | 292 | 3.5 | 7.8 | 0.00 | 0.00 | 0.00 | 43 | 1040.8 |
| 20260507205522 | 90 | 321 | 4.3 | 10.4 | 0.00 | 0.00 | 0.00 | 43 | 1040.8 |
| 20260507205022 | 90 | 236 | 6.1 | 11.3 | 0.00 | 0.00 | 0.00 | 40 | 1040.9 |
| 20260507204521 | 89 | 340 | 3.5 | 11.3 | 0.00 | 0.00 | 0.00 | 39 | 1041.0 |
| 20260507204021 | 89 | 288 | 2.6 | 13.0 | 0.00 | 0.00 | 0.00 | 39 | 1041.0 |
| 20260507203520 | 89 | 294 | 6.1 | 13.0 | 0.00 | 0.00 | 0.00 | 36 | 1041.2 |
| 20260507203019 | 90 | 335 | 3.5 | 13.9 | 0.00 | 0.00 | 0.00 | 33 | 1041.2 |
| 20260507202518 | 91 | 299 | 6.1 | 13.9 | 0.00 | 0.00 | 0.00 | 32 | 1041.1 |
| 20260507202021 | 91 | 263 | 6.1 | 13.0 | 0.00 | 0.00 | 0.00 | 27 | 1041.2 |
| 20260507201519 | 91 | 307 | 5.2 | 13.9 | 0.00 | 0.00 | 0.00 | 27 | 1041.3 |
| 20260507201018 | 91 | 275 | 6.1 | 12.2 | 0.00 | 0.00 | 0.00 | 25 | 1041.3 |
| 20260507200518 | 91 | 279 | 3.5 | 12.2 | 0.00 | 0.00 | 0.00 | 28 | 1041.4 |
| 20260507200018 | 91 | 22 | 6.1 | 12.2 | 0.00 | 0.00 | 0.00 | 28 | 1041.3 |
| 20260507195517 | 91 | 250 | 6.1 | 11.3 | 0.00 | 0.00 | 0.00 | 28 | 1041.3 |
| 20260507195022 | 91 | 256 | 4.3 | 11.3 | 0.00 | 0.00 | 0.00 | 27 | 1041.3 |
| 20260507194517 | 91 | 281 | 4.3 | 12.2 | 0.00 | 0.00 | 0.00 | 27 | 1041.5 |
| 20260507194016 | 91 | 266 | 5.2 | 13.0 | 0.00 | 0.00 | 0.00 | 33 | 1041.6 |
| 20260507193515 | 91 | 290 | 4.3 | 13.0 | 0.00 | 0.00 | 0.00 | 29 | 1041.6 |
| 20260507193020 | 91 | 275 | 7.0 | 13.0 | 0.00 | 0.00 | 0.00 | 25 | 1041.7 |
| 20260507192515 | 91 | 271 | 6.1 | 13.0 | 0.00 | 0.00 | 0.00 | 36 | 1041.7 |
| 20260507192015 | 90 | 248 | 4.3 | 13.0 | 0.00 | 0.00 | 0.00 | 35 | 1041.8 |
| 20260507191515 | 90 | 293 | 6.1 | 12.2 | 0.00 | 0.00 | 0.00 | 38 | 1041.9 |
| 20260507191015 | 90 | 317 | 2.6 | 10.4 | 0.00 | 0.00 | 0.00 | 38 | 1041.9 |
| 20260507190518 | 91 | 299 | 6.1 | 12.2 | 0.00 | 0.00 | 0.00 | 34 | 1041.9 |
| 20260507190016 | 91 | 343 | 7.0 | 12.2 | 0.00 | 0.00 | 0.00 | 31 | 1042.1 |
| 20260507185513 | 91 | 297 | 2.6 | 11.3 | 0.00 | 0.00 | 0.00 | 34 | 1042.1 |
| 20260507185013 | 91 | 249 | 4.3 | 13.0 | 0.00 | 0.00 | 0.00 | 34 | 1042.0 |
| 20260507184513 | 90 | 304 | 5.2 | 13.0 | 0.00 | 0.00 | 0.00 | 37 | 1042.0 |
| 20260507184012 | 91 | 240 | 4.3 | 12.2 | 0.00 | 0.00 | 0.00 | 36 | 1042.1 |
| 20260507183513 | 90 | 267 | 3.5 | 13.0 | 0.00 | 0.00 | 0.00 | 38 | 1042.3 |
| 20260507183012 | 90 | 232 | 3.5 | 13.0 | 0.00 | 0.00 | 0.00 | 38 | 1042.4 |
| 20260507182511 | 89 | 257 | 7.0 | 12.2 | 0.00 | 0.00 | 0.00 | 41 | 1042.4 |
| 20260507182011 | 89 | 293 | 6.1 | 11.3 | 0.00 | 0.00 | 0.00 | 39 | 1042.4 |
| 20260507181515 | 90 | 227 | 5.2 | 12.2 | 0.00 | 0.00 | 0.00 | 39 | 1042.5 |
| 20260507181014 | 90 | 304 | 6.1 | 12.2 | 0.00 | 0.00 | 0.00 | 39 | 1042.5 |
| 20260507180511 | 91 | 213 | 5.2 | 13.0 | 0.00 | 0.00 | 0.00 | 39 | 1042.7 |
| 20260507180013 | 92 | 260 | 4.3 | 13.0 | 0.00 | 0.00 | 0.00 | 36 | 1042.6 |
| 20260507175516 | 91 | 349 | 5.2 | 13.9 | 0.00 | 0.00 | 0.00 | 39 | 1042.8 |
| 20260507175011 | 91 | 252 | 3.5 | 13.9 | 0.00 | 0.00 | 0.00 | 40 | 1042.8 |
| 20260507174519 | 91 | 254 | 4.3 | 14.8 | 0.00 | 0.00 | 0.00 | 39 | 1042.9 |
| 20260507174017 | 91 | 264 | 6.1 | 12.2 | 0.00 | 0.00 | 0.00 | 37 | 1042.9 |
| 20260507173512 | 91 | 80 | 3.5 | 18.2 | 0.00 | 0.00 | 0.00 | 36 | 1042.8 |
| 20260507173016 | 91 | 219 | 5.2 | 18.2 | 0.00 | 0.00 | 0.00 | 37 | 1042.8 |
| 20260507172510 | 92 | 296 | 5.2 | 11.3 | 0.00 | 0.00 | 0.00 | 40 | 1042.7 |
| 20260507172012 | 92 | 275 | 5.2 | 11.3 | 0.00 | 0.00 | 0.00 | 35 | 1042.6 |
| 20260507171508 | 92 | 320 | 7.0 | 10.4 | 0.00 | 0.00 | 0.00 | 38 | 1042.7 |
| 20260507171008 | 92 | 321 | 2.6 | 14.8 | 0.00 | 0.00 | 0.00 | 41 | 1042.5 |
| 20260507170509 | 93 | 311 | 5.2 | 14.8 | 0.00 | 0.00 | 0.00 | 40 | 1042.4 |
| 20260507170006 | 92 | 207 | 4.3 | 9.6 | 0.00 | 0.00 | 0.00 | 40 | 1042.4 |
| 20260507165510 | 92 | 228 | 2.6 | 9.6 | 0.00 | 0.00 | 0.00 | 40 | 1042.4 |
| 20260507165104 | 92 | 251 | 3.5 | 9.6 | 0.00 | 0.00 | 0.00 | 39 | 1042.4 |
| 20260507164505 | 92 | 277 | 4.3 | 13.9 | 0.00 | 0.00 | 0.00 | 39 | 1042.4 |
| 20260507164002 | 92 | 302 | 7.8 | 13.9 | 0.00 | 0.00 | 0.00 | 38 | 1042.2 |
| 20260507163559 | 92 | 133 | 2.6 | 11.3 | 0.00 | 0.00 | 0.00 | 39 | 1042.2 |
| 20260507163100 | 91 | 297 | 2.6 | 13.9 | 0.00 | 0.00 | 0.00 | 42 | 1042.3 |
| 20260507162559 | 91 | 236 | 3.5 | 13.9 | 0.00 | 0.00 | 0.00 | 40 | 1042.3 |
| 20260507162101 | 91 | 299 | 5.2 | 13.9 | 0.00 | 0.00 | 0.00 | 39 | 1042.3 |
| 20260507161559 | 90 | 221 | 6.1 | 14.8 | 0.00 | 0.00 | 0.00 | 42 | 1042.4 |
| 20260507161059 | 91 | 258 | 4.3 | 14.8 | 0.00 | 0.00 | 0.00 | 43 | 1042.4 |
| 20260507160555 | 91 | 285 | 2.6 | 13.0 | 0.00 | 0.00 | 0.00 | 42 | 1042.3 |
| 20260507160114 | 91 | 259 | 4.3 | 13.0 | 0.00 | 0.00 | 0.00 | 45 | 1042.4 |
| 20260507155556 | 90 | 296 | 5.2 | 9.6 | 0.00 | 0.00 | 0.00 | 46 | 1042.4 |
| 20260507155055 | 89 | 312 | 4.3 | 13.9 | 0.00 | 0.00 | 0.00 | 47 | 1042.4 |
| 20260507154550 | 90 | 236 | 3.5 | 13.9 | 0.00 | 0.00 | 0.00 | 47 | 1042.5 |
| 20260507154050 | 89 | 214 | 4.3 | 10.4 | 0.00 | 0.00 | 0.00 | 48 | 1042.5 |
| 20260507153553 | 89 | 142 | 3.5 | 9.6 | 0.00 | 0.00 | 0.00 | 47 | 1042.6 |
| 20260507153048 | 89 | 211 | 5.2 | 9.6 | 0.00 | 0.00 | 0.00 | 48 | 1042.6 |
| 20260507152555 | 89 | 196 | 2.6 | 9.6 | 0.00 | 0.00 | 0.00 | 48 | 1042.6 |
| 20260507152048 | 89 | 152 | 1.7 | 7.0 | 0.00 | 0.00 | 0.00 | 50 | 1042.5 |
| 20260507151545 | 89 | 259 | 3.5 | 8.7 | 0.00 | 0.00 | 0.00 | 48 | 1042.5 |
| 20260507151043 | 88 | 248 | 0.9 | 8.7 | 0.00 | 0.00 | 0.00 | 47 | 1042.5 |
| 20260507150542 | 88 | 215 | 1.7 | 6.1 | 0.00 | 0.00 | 0.00 | 45 | 1042.6 |
| 20260507150041 | 88 | 223 | 0.9 | 7.8 | 0.00 | 0.00 | 0.00 | 49 | 1042.5 |
| 20260507145542 | 87 | 212 | 1.7 | 7.8 | 0.00 | 0.00 | 0.00 | 51 | 1042.6 |
| 20260507145037 | 87 | 277 | 2.6 | 7.8 | 0.00 | 0.00 | 0.00 | 46 | 1042.7 |
| 20260507144536 | 87 | 265 | 1.7 | 7.0 | 0.00 | 0.00 | 0.00 | 49 | 1042.6 |
| 20260507144036 | 87 | 196 | 1.7 | 6.1 | 0.00 | 0.00 | 0.00 | 47 | 1042.6 |
| 20260507143533 | 86 | 275 | 0.9 | 5.2 | 0.00 | 0.00 | 0.00 | 45 | 1042.6 |
| 20260507143032 | 86 | 147 | 2.6 | 5.2 | 0.00 | 0.00 | 0.00 | 51 | 1042.6 |
| 20260507142531 | 85 | 202 | 2.6 | 7.8 | 0.00 | 0.00 | 0.00 | 49 | 1042.8 |
| 20260507142033 | 85 | 140 | 3.5 | 7.8 | 0.00 | 0.00 | 0.00 | 53 | 1042.8 |
| 20260507141527 | 84 | 176 | 2.6 | 7.0 | 0.00 | 0.00 | 0.00 | 56 | 1042.9 |
| 20260507141026 | 84 | 182 | 0.9 | 5.2 | 0.00 | 0.00 | 0.00 | 60 | 1042.9 |
| 20260507140524 | 84 | 201 | 1.7 | 7.8 | 0.00 | 0.00 | 0.00 | 63 | 1042.9 |
| 20260507140036 | 83 | 217 | 3.5 | 7.8 | 0.00 | 0.00 | 0.00 | 63 | 1042.9 |
| 20260507135521 | 83 | 177 | 3.5 | 7.8 | 0.00 | 0.00 | 0.00 | 68 | 1042.9 |
| 20260507135023 | 82 | 167 | 1.7 | 7.8 | 0.00 | 0.00 | 0.00 | 67 | 1042.9 |
| 20260507134519 | 81 | 277 | 2.6 | 7.8 | 0.00 | 0.00 | 0.00 | 68 | 1043.0 |
| 20260507134017 | 81 | 172 | 1.7 | 5.2 | 0.00 | 0.00 | 0.00 | 70 | 1042.9 |
| 20260507133516 | 81 | 200 | 0.9 | 6.1 | 0.00 | 0.00 | 0.00 | 74 | 1043.0 |
| 20260507133014 | 80 | 191 | 2.6 | 7.0 | 0.00 | 0.00 | 0.00 | 72 | 1043.0 |
| 20260507132512 | 80 | 253 | 0.9 | 4.3 | 0.00 | 0.00 | 0.00 | 76 | 1042.9 |
| 20260507132011 | 80 | 214 | 1.7 | 4.3 | 0.00 | 0.00 | 0.00 | 77 | 1042.9 |
| 20260507131512 | 79 | 216 | 0.9 | 5.2 | 0.00 | 0.00 | 0.00 | 79 | 1042.9 |
| 20260507131009 | 78 | 176 | 0.9 | 5.2 | 0.00 | 0.00 | 0.00 | 79 | 1042.8 |
| 20260507130507 | 78 | 204 | 0.9 | 6.1 | 0.00 | 0.00 | 0.00 | 80 | 1042.9 |
| 20260507130006 | 77 | 235 | 1.7 | 5.2 | 0.00 | 0.00 | 0.00 | 82 | 1042.9 |
| 20260507125507 | 77 | 153 | 0.0 | 3.5 | 0.00 | 0.00 | 0.00 | 84 | 1042.9 |
| 20260507125003 | 76 | 234 | 0.0 | 2.6 | 0.00 | 0.00 | 0.00 | 85 | 1042.9 |
| 20260507124503 | 75 | 120 | 0.0 | 2.6 | 0.00 | 0.00 | 0.00 | 87 | 1042.8 |
| 20260507124100 | 74 | 61 | 0.0 | 2.6 | 0.00 | 0.00 | 0.00 | 87 | 1042.8 |
| 20260507123559 | 74 | 214 | 0.0 | 3.5 | 0.00 | 0.00 | 0.00 | 90 | 1042.8 |
| 20260507123104 | 73 | 153 | 0.9 | 3.5 | 0.00 | 0.00 | 0.00 | 94 | 1042.8 |
| 20260507122555 | 72 | 190 | 0.0 | 3.5 | 0.00 | 0.00 | 0.00 | 97 | 1042.8 |
| 20260507122057 | 72 | 130 | 0.0 | 3.5 | 0.00 | 0.00 | 0.00 | 100 | 1042.7 |
| 20260507121557 | 71 | 171 | 0.9 | 3.5 | 0.00 | 0.00 | 0.00 | 100 | 1042.6 |
| 20260507121053 | 71 | 161 | 0.0 | 2.6 | 0.00 | 0.00 | 0.00 | 100 | 1042.7 |
| 20260507120552 | 70 | 194 | 0.0 | 2.6 | 0.00 | 0.00 | 0.00 | 100 | 1042.6 |
| 20260507120052 | 70 | 236 | 0.9 | 2.6 | 0.00 | 0.00 | 0.00 | 100 | 1042.6 |
| 20260507115551 | 69 | 217 | 0.0 | 1.7 | 0.00 | 0.00 | 0.00 | 100 | 1042.7 |
| 20260507115049 | 69 | 141 | 0.0 | 1.7 | 0.00 | 0.00 | 0.00 | 100 | 1042.6 |
| 20260507114549 | 69 | 230 | 0.0 | 1.7 | 0.00 | 0.00 | 0.00 | 100 | 1042.5 |
| 20260507114051 | 68 | 179 | 0.0 | 0.0 | 0.00 | 0.00 | 0.00 | 100 | 1042.5 |
| 20260507113547 | 68 | 176 | 0.0 | 0.0 | 0.00 | 0.00 | 0.00 | 100 | 1042.5 |
| 20260507113106 | 68 | 203 | 0.0 | 0.0 | 0.00 | 0.00 | 0.00 | 100 | 1042.5 |
| 20260507112548 | 68 | 203 | 0.0 | 0.0 | 0.00 | 0.00 | 0.00 | 100 | 1042.4 |
| 20260507112045 | 68 | 203 | 0.0 | 0.0 | 0.00 | 0.00 | 0.00 | 100 | 1042.4 |
| 20260507111545 | 68 | 143 | 0.0 | 0.0 | 0.00 | 0.00 | 0.00 | 100 | 1042.4 |
| 20260507111044 | 68 | 143 | 0.0 | 0.0 | 0.00 | 0.00 | 0.00 | 100 | 1042.4 |
| 20260507110544 | 68 | 143 | 0.0 | 0.0 | 0.00 | 0.00 | 0.00 | 100 | 1042.3 |
| 20260507110044 | 68 | 194 | 0.0 | 0.0 | 0.00 | 0.00 | 0.00 | 100 | 1042.3 |
| 20260507105543 | 68 | 194 | 0.0 | 0.0 | 0.00 | 0.00 | 0.00 | 100 | 1042.3 |
| 20260507105043 | 68 | 194 | 0.0 | 0.0 | 0.00 | 0.00 | 0.00 | 100 | 1042.3 |
| 20260507104644 | 68 | 188 | 0.0 | 0.0 | 0.00 | 0.00 | 0.00 | 100 | 1042.3 |
| 20260507104043 | 68 | 188 | 0.0 | 0.0 | 0.00 | 0.00 | 0.00 | 100 | 1042.3 |
| 20260507103543 | 68 | 188 | 0.0 | 0.0 | 0.00 | 0.00 | 0.00 | 100 | 1042.3 |
| 20260507103042 | 68 | 188 | 0.0 | 0.0 | 0.00 | 0.00 | 0.00 | 100 | 1042.4 |
| 20260507102542 | 68 | 188 | 0.0 | 0.0 | 0.00 | 0.00 | 0.00 | 100 | 1042.3 |
| 20260507102042 | 68 | 188 | 0.0 | 0.0 | 0.00 | 0.00 | 0.00 | 100 | 1042.4 |
| 20260507101542 | 69 | 188 | 0.0 | 0.0 | 0.00 | 0.00 | 0.00 | 100 | 1042.2 |
| 20260507101041 | 69 | 190 | 0.0 | 0.0 | 0.00 | 0.00 | 0.00 | 100 | 1042.2 |
| 20260507100541 | 69 | 190 | 0.0 | 0.0 | 0.00 | 0.00 | 0.00 | 100 | 1042.2 |
| 20260507100052 | 69 | 190 | 0.0 | 0.0 | 0.00 | 0.00 | 0.00 | 100 | 1042.1 |
| 20260507095545 | 69 | 190 | 0.0 | 0.0 | 0.00 | 0.00 | 0.00 | 100 | 1041.9 |
| 20260507095043 | 69 | 190 | 0.0 | 0.0 | 0.00 | 0.00 | 0.00 | 100 | 1041.8 |
| 20260507094542 | 68 | 190 | 0.0 | 0.0 | 0.00 | 0.00 | 0.00 | 100 | 1041.9 |
| 20260507094043 | 68 | 190 | 0.0 | 0.0 | 0.00 | 0.00 | 0.00 | 100 | 1041.8 |
| 20260507093542 | 68 | 190 | 0.0 | 0.0 | 0.00 | 0.00 | 0.00 | 100 | 1041.9 |
| 20260507093042 | 68 | 190 | 0.0 | 0.0 | 0.00 | 0.00 | 0.00 | 100 | 1041.9 |
| 20260507092540 | 69 | 190 | 0.0 | 0.0 | 0.00 | 0.00 | 0.00 | 100 | 1041.9 |
| 20260507092041 | 68 | 190 | 0.0 | 0.0 | 0.00 | 0.00 | 0.00 | 100 | 1041.8 |
| 20260507091543 | 68 | 190 | 0.0 | 0.0 | 0.00 | 0.00 | 0.00 | 100 | 1041.8 |
| 20260507091041 | 68 | 190 | 0.0 | 0.0 | 0.00 | 0.00 | 0.00 | 100 | 1041.7 |
| 20260507090540 | 68 | 190 | 0.0 | 0.0 | 0.00 | 0.00 | 0.00 | 100 | 1041.6 |
| 20260507090041 | 68 | 190 | 0.0 | 0.0 | 0.00 | 0.00 | 0.00 | 100 | 1041.6 |
| 20260507085540 | 68 | 190 | 0.0 | 0.0 | 0.00 | 0.00 | 0.00 | 100 | 1041.6 |
| 20260507085039 | 68 | 190 | 0.0 | 0.0 | 0.00 | 0.00 | 0.00 | 100 | 1041.6 |
| 20260507084551 | 68 | 190 | 0.0 | 0.0 | 0.00 | 0.00 | 0.00 | 100 | 1041.6 |
| 20260507084038 | 68 | 190 | 0.0 | 0.0 | 0.00 | 0.00 | 0.00 | 100 | 1041.5 |
| 20260507083537 | 68 | 190 | 0.0 | 0.0 | 0.00 | 0.00 | 0.00 | 100 | 1041.4 |
| 20260507083037 | 68 | 190 | 0.0 | 0.0 | 0.00 | 0.00 | 0.00 | 100 | 1041.3 |
| 20260507082537 | 68 | 190 | 0.0 | 0.0 | 0.00 | 0.00 | 0.00 | 100 | 1041.4 |
| 20260507082035 | 69 | 190 | 0.0 | 0.0 | 0.00 | 0.00 | 0.00 | 100 | 1041.6 |
| 20260507081535 | 69 | 190 | 0.0 | 0.0 | 0.00 | 0.00 | 0.00 | 100 | 1041.7 |
| 20260507081035 | 69 | 190 | 0.0 | 0.0 | 0.00 | 0.00 | 0.00 | 100 | 1041.7 |
| 20260507080536 | 69 | 190 | 0.0 | 0.0 | 0.00 | 0.00 | 0.00 | 100 | 1041.8 |
| 20260507080034 | 69 | 190 | 0.0 | 0.0 | 0.00 | 0.00 | 0.00 | 100 | 1041.9 |
| 20260507075538 | 69 | 190 | 0.0 | 0.0 | 0.00 | 0.00 | 0.00 | 100 | 1041.9 |
| 20260507075034 | 69 | 190 | 0.0 | 0.0 | 0.00 | 0.00 | 0.00 | 100 | 1042.0 |
| 20260507074535 | 69 | 190 | 0.0 | 0.0 | 0.00 | 0.00 | 0.00 | 100 | 1042.1 |
| 20260507074035 | 69 | 190 | 0.0 | 0.0 | 0.00 | 0.00 | 0.00 | 100 | 1042.1 |
| 20260507073533 | 69 | 190 | 0.0 | 0.0 | 0.00 | 0.00 | 0.00 | 100 | 1042.0 |
| 20260507073033 | 69 | 190 | 0.0 | 0.0 | 0.00 | 0.00 | 0.00 | 100 | 1041.9 |
| 20260507072533 | 69 | 190 | 0.0 | 0.0 | 0.00 | 0.00 | 0.00 | 100 | 1041.9 |
| 20260507072033 | 69 | 190 | 0.0 | 0.0 | 0.00 | 0.00 | 0.00 | 100 | 1041.8 |
| 20260507071537 | 69 | 190 | 0.0 | 0.0 | 0.00 | 0.00 | 0.00 | 100 | 1041.7 |
| 20260507071033 | 69 | 190 | 0.0 | 0.0 | 0.00 | 0.00 | 0.00 | 100 | 1041.7 |
| 20260507070532 | 69 | 190 | 0.0 | 0.0 | 0.00 | 0.00 | 0.00 | 100 | 1041.7 |
| 20260507070032 | 69 | 190 | 0.0 | 0.0 | 0.00 | 0.00 | 0.00 | 100 | 1041.8 |
| 20260507065530 | 69 | 190 | 0.0 | 0.0 | 0.00 | 0.00 | 0.00 | 100 | 1041.9 |
| 20260507065029 | 69 | 190 | 0.0 | 0.0 | 0.00 | 0.00 | 0.00 | 100 | 1042.0 |
| 20260507064530 | 69 | 190 | 0.0 | 0.0 | 0.00 | 0.00 | 0.00 | 100 | 1042.2 |
| 20260507064030 | 69 | 190 | 0.0 | 0.0 | 0.00 | 0.00 | 0.00 | 100 | 1042.3 |
| 20260507063528 | 70 | 190 | 0.0 | 0.0 | 0.00 | 0.00 | 0.00 | 100 | 1042.3 |
| 20260507063028 | 70 | 190 | 0.0 | 0.0 | 0.00 | 0.00 | 0.00 | 100 | 1042.4 |
| 20260507062527 | 70 | 219 | 0.0 | 0.0 | 0.00 | 0.00 | 0.00 | 100 | 1042.4 |
| 20260507062025 | 70 | 225 | 0.0 | 0.0 | 0.00 | 0.00 | 0.00 | 100 | 1042.7 |
| 20260507061533 | 70 | 225 | 0.0 | 0.0 | 0.00 | 0.00 | 0.00 | 100 | 1042.8 |
| 20260507061023 | 70 | 225 | 0.0 | 0.0 | 0.00 | 0.00 | 0.00 | 100 | 1042.9 |
| 20260507060523 | 69 | 225 | 0.0 | 0.0 | 0.00 | 0.00 | 0.00 | 100 | 1043.0 |
| 20260507060036 | 69 | 225 | 0.0 | 0.0 | 0.00 | 0.00 | 0.00 | 100 | 1043.1 |
| 20260507055522 | 69 | 225 | 0.0 | 0.0 | 0.00 | 0.00 | 0.00 | 100 | 1043.2 |
| 20260507055020 | 70 | 225 | 0.0 | 0.0 | 0.00 | 0.00 | 0.00 | 100 | 1043.3 |
| 20260507054533 | 70 | 225 | 0.0 | 0.0 | 0.00 | 0.00 | 0.00 | 100 | 1043.3 |
| 20260507054022 | 70 | 225 | 0.0 | 0.0 | 0.00 | 0.00 | 0.00 | 100 | 1043.3 |
| 20260507053519 | 70 | 225 | 0.0 | 0.0 | 0.00 | 0.00 | 0.00 | 100 | 1043.4 |
| 20260507053020 | 70 | 225 | 0.0 | 0.0 | 0.00 | 0.00 | 0.00 | 100 | 1043.3 |
| 20260507052524 | 70 | 225 | 0.0 | 0.0 | 0.00 | 0.00 | 0.00 | 100 | 1043.5 |
| 20260507052019 | 70 | 225 | 0.0 | 0.0 | 0.00 | 0.00 | 0.00 | 100 | 1043.5 |
| 20260507051518 | 71 | 225 | 0.0 | 0.0 | 0.00 | 0.00 | 0.00 | 100 | 1043.5 |
| 20260507051023 | 71 | 225 | 0.0 | 0.0 | 0.00 | 0.00 | 0.00 | 100 | 1043.3 |
| 20260507050519 | 71 | 225 | 0.0 | 0.0 | 0.00 | 0.00 | 0.00 | 100 | 1043.5 |
| 20260507050039 | 71 | 225 | 0.0 | 0.0 | 0.00 | 0.00 | 0.00 | 100 | 1043.5 |
| 20260507045517 | 71 | 173 | 0.0 | 0.0 | 0.00 | 0.00 | 0.00 | 100 | 1043.3 |
| 20260507045017 | 71 | 173 | 0.0 | 0.0 | 0.00 | 0.00 | 0.00 | 100 | 1043.4 |
| 20260507044522 | 71 | 286 | 0.0 | 0.0 | 0.00 | 0.00 | 0.00 | 100 | 1043.5 |
| 20260507044015 | 71 | 286 | 0.0 | 0.0 | 0.00 | 0.00 | 0.00 | 100 | 1043.4 |
| 20260507043513 | 72 | 286 | 0.0 | 0.0 | 0.00 | 0.00 | 0.00 | 99 | 1043.4 |
| 20260507043012 | 72 | 286 | 0.0 | 0.0 | 0.00 | 0.00 | 0.00 | 99 | 1043.6 |
| 20260507042511 | 72 | 254 | 0.0 | 0.0 | 0.00 | 0.00 | 0.00 | 99 | 1043.6 |
| 20260507042010 | 72 | 142 | 0.0 | 0.0 | 0.00 | 0.00 | 0.00 | 99 | 1043.5 |
| 20260507041508 | 72 | 134 | 0.0 | 0.0 | 0.00 | 0.00 | 0.00 | 98 | 1043.9 |
| 20260507041006 | 72 | 196 | 0.0 | 0.0 | 0.00 | 0.00 | 0.00 | 98 | 1043.9 |
| 20260507040505 | 72 | 184 | 0.0 | 0.9 | 0.00 | 0.00 | 0.00 | 98 | 1043.8 |
| 20260507040006 | 72 | 180 | 0.0 | 3.5 | 0.00 | 0.00 | 0.00 | 97 | 1044.0 |
| 20260507035503 | 72 | 166 | 1.7 | 3.5 | 0.00 | 0.00 | 0.00 | 97 | 1044.0 |
| 20260507035003 | 72 | 126 | 0.0 | 0.0 | 0.00 | 0.00 | 0.00 | 96 | 1043.8 |
| 20260507034505 | 72 | 209 | 0.0 | 0.0 | 0.00 | 0.00 | 0.00 | 95 | 1043.5 |
| 20260507034005 | 73 | 209 | 0.0 | 0.0 | 0.00 | 0.00 | 0.00 | 94 | 1043.5 |
| 20260507033502 | 73 | 209 | 0.0 | 0.0 | 0.00 | 0.00 | 0.00 | 95 | 1043.2 |
| 20260507033003 | 73 | 209 | 0.0 | 0.0 | 0.00 | 0.00 | 0.00 | 95 | 1043.3 |
| 20260507032503 | 73 | 209 | 0.0 | 0.0 | 0.00 | 0.00 | 0.00 | 94 | 1043.2 |
| 20260507032002 | 73 | 209 | 0.0 | 0.0 | 0.00 | 0.00 | 0.00 | 94 | 1043.3 |
| 20260507031505 | 73 | 286 | 0.0 | 1.7 | 0.00 | 0.00 | 0.00 | 93 | 1043.3 |
| 20260507031003 | 73 | 286 | 0.0 | 1.7 | 0.00 | 0.00 | 0.00 | 94 | 1043.2 |
| 20260507030503 | 73 | 267 | 0.0 | 0.9 | 0.00 | 0.00 | 0.00 | 93 | 1043.3 |
| 20260507030005 | 73 | 267 | 0.0 | 1.7 | 0.00 | 0.00 | 0.00 | 92 | 1043.2 |
| 20260507025501 | 74 | 244 | 0.0 | 1.7 | 0.00 | 0.00 | 0.00 | 91 | 1043.1 |
| 20260507025005 | 74 | 276 | 0.0 | 0.0 | 0.00 | 0.00 | 0.00 | 91 | 1043.2 |
| 20260507024502 | 74 | 298 | 0.0 | 0.0 | 0.00 | 0.00 | 0.00 | 91 | 1043.3 |
| 20260507024002 | 74 | 305 | 0.0 | 0.0 | 0.00 | 0.00 | 0.00 | 91 | 1043.5 |
| 20260507023500 | 74 | 294 | 0.0 | 0.0 | 0.00 | 0.00 | 0.00 | 90 | 1043.5 |
| 20260507023002 | 74 | 294 | 0.0 | 0.9 | 0.00 | 0.00 | 0.00 | 89 | 1043.5 |
| 20260507022503 | 74 | 290 | 0.0 | 1.7 | 0.00 | 0.00 | 0.00 | 88 | 1043.4 |
| 20260507022101 | 74 | 273 | 0.0 | 1.7 | 0.00 | 0.00 | 0.00 | 87 | 1043.4 |
| 20260507022002 | 75 | 273 | 0.0 | 1.7 | 0.00 | 0.00 | 0.00 | 87 | 1043.4 |
| 20260507021616 | 75 | 295 | 0.0 | 1.7 | 0.00 | 0.00 | 0.00 | 86 | 1043.3 |
| 20260507021100 | 75 | 292 | 0.0 | 0.9 | 0.00 | 0.00 | 0.00 | 86 | 1043.2 |
| 20260507020600 | 75 | 309 | 0.0 | 0.9 | 0.00 | 0.00 | 0.00 | 85 | 1043.1 |
| 20260507020100 | 76 | 304 | 0.0 | 0.9 | 0.00 | 0.00 | 0.00 | 84 | 1043.2 |
| 20260507015600 | 76 | 273 | 0.0 | 0.9 | 0.00 | 0.00 | 0.00 | 84 | 1043.2 |
| 20260507015100 | 76 | 274 | 0.0 | 1.7 | 0.00 | 0.00 | 0.00 | 83 | 1043.2 |
| 20260507014601 | 76 | 299 | 0.0 | 2.6 | 0.00 | 0.00 | 0.00 | 82 | 1043.3 |
| 20260507014101 | 76 | 273 | 0.9 | 6.1 | 0.00 | 0.00 | 0.00 | 81 | 1043.3 |
| 20260507013600 | 77 | 277 | 0.0 | 6.1 | 0.00 | 0.00 | 0.00 | 80 | 1043.4 |
| 20260507013059 | 77 | 271 | 0.9 | 4.3 | 0.00 | 0.00 | 0.00 | 80 | 1043.4 |
| 20260507012603 | 77 | 273 | 2.6 | 4.3 | 0.00 | 0.00 | 0.00 | 79 | 1043.3 |
| 20260507012100 | 77 | 286 | 0.0 | 3.5 | 0.00 | 0.00 | 0.00 | 79 | 1043.2 |
| 20260507011603 | 77 | 278 | 1.7 | 3.5 | 0.00 | 0.00 | 0.00 | 78 | 1043.1 |
| 20260507011058 | 77 | 265 | 0.9 | 2.6 | 0.00 | 0.00 | 0.00 | 77 | 1043.1 |
| 20260507010558 | 78 | 286 | 0.0 | 2.6 | 0.00 | 0.00 | 0.00 | 76 | 1043.0 |
| 20260507005558 | 78 | 238 | 0.0 | 1.7 | 0.00 | 0.00 | 0.00 | 75 | 1042.8 |
| 20260507005057 | 78 | 282 | 0.0 | 5.2 | 0.00 | 0.00 | 0.00 | 74 | 1042.9 |
| 20260507004558 | 79 | 318 | 1.7 | 6.1 | 0.00 | 0.00 | 0.00 | 73 | 1042.8 |
| 20260507004057 | 79 | 297 | 0.9 | 6.1 | 0.00 | 0.00 | 0.00 | 73 | 1042.9 |
| 20260507003556 | 79 | 304 | 0.0 | 4.3 | 0.00 | 0.00 | 0.00 | 72 | 1042.8 |
| 20260507003056 | 79 | 257 | 2.6 | 4.3 | 0.00 | 0.00 | 0.00 | 72 | 1042.8 |
| 20260507002556 | 79 | 250 | 1.7 | 7.0 | 0.00 | 0.00 | 0.00 | 72 | 1042.7 |
| 20260507002056 | 79 | 290 | 1.7 | 7.0 | 0.00 | 0.00 | 0.00 | 71 | 1042.7 |
| 20260507001604 | 79 | 284 | 3.5 | 7.0 | 0.00 | 0.00 | 0.00 | 72 | 1042.6 |
| 20260507001055 | 80 | 296 | 2.6 | 7.0 | 0.00 | 0.00 | 0.00 | 73 | 1042.5 |
| 20260507000556 | 80 | 261 | 3.5 | 7.0 | 0.00 | 0.00 | 0.00 | 73 | 1042.4 |
| 20260507000058 | 80 | 299 | 1.7 | 7.0 | 0.00 | 0.00 | 0.00 | 73 | 1042.4 |
| 20260506235557 | 81 | 295 | 1.7 | 7.0 | 0.00 | 0.00 | 0.00 | 73 | 1042.4 |
| 20260506235056 | 81 | 257 | 3.5 | 8.7 | 0.00 | 0.00 | 0.00 | 72 | 1042.4 |
| 20260506234621 | 81 | 245 | 4.3 | 9.6 | 0.00 | 0.00 | 0.00 | 71 | 1042.4 |
| 20260506234055 | 82 | 283 | 2.6 | 8.7 | 0.00 | 0.00 | 0.00 | 70 | 1042.4 |
| 20260506233554 | 82 | 231 | 2.6 | 7.8 | 0.00 | 0.00 | 0.00 | 69 | 1042.3 |
| 20260506233055 | 82 | 240 | 3.5 | 7.0 | 0.00 | 0.00 | 0.00 | 69 | 1042.4 |
| 20260506232558 | 83 | 319 | 1.7 | 9.6 | 0.00 | 0.00 | 0.00 | 68 | 1042.3 |
| 20260506232054 | 83 | 264 | 4.3 | 9.6 | 0.00 | 0.00 | 0.00 | 67 | 1042.3 |
| 20260506231555 | 84 | 274 | 2.6 | 7.0 | 0.00 | 0.00 | 0.00 | 67 | 1042.3 |
| 20260506231059 | 84 | 256 | 1.7 | 8.7 | 0.00 | 0.00 | 0.00 | 67 | 1042.4 |
| 20260506230558 | 84 | 247 | 4.3 | 8.7 | 0.00 | 0.00 | 0.00 | 66 | 1042.4 |
| 20260506230057 | 84 | 292 | 5.2 | 10.4 | 0.00 | 0.00 | 0.00 | 65 | 1042.4 |
| 20260506225557 | 84 | 257 | 5.2 | 10.4 | 0.00 | 0.00 | 0.00 | 64 | 1042.3 |
| 20260506225054 | 85 | 292 | 3.5 | 8.7 | 0.00 | 0.00 | 0.00 | 65 | 1042.4 |
| 20260506224553 | 85 | 271 | 5.2 | 9.6 | 0.00 | 0.00 | 0.00 | 64 | 1042.3 |
| 20260506224052 | 85 | 290 | 4.3 | 9.6 | 0.00 | 0.00 | 0.00 | 64 | 1042.3 |
| 20260506223555 | 86 | 302 | 3.5 | 9.6 | 0.00 | 0.00 | 0.00 | 61 | 1042.2 |
| 20260506223058 | 85 | 246 | 2.6 | 8.7 | 0.00 | 0.00 | 0.00 | 61 | 1042.2 |
| 20260506222551 | 86 | 308 | 4.3 | 9.6 | 0.00 | 0.00 | 0.00 | 60 | 1042.2 |
| 20260506222051 | 87 | 281 | 6.1 | 9.6 | 0.00 | 0.00 | 0.00 | 59 | 1042.2 |
| 20260506221554 | 87 | 271 | 5.2 | 9.6 | 0.00 | 0.00 | 0.00 | 59 | 1042.2 |
| 20260506221052 | 87 | 292 | 4.3 | 11.3 | 0.00 | 0.00 | 0.00 | 55 | 1042.2 |
| 20260506220551 | 87 | 250 | 4.3 | 11.3 | 0.00 | 0.00 | 0.00 | 59 | 1042.2 |
| 20260506220051 | 87 | 266 | 6.1 | 11.3 | 0.00 | 0.00 | 0.00 | 58 | 1042.2 |
| 20260506215550 | 87 | 262 | 3.5 | 13.9 | 0.00 | 0.00 | 0.00 | 56 | 1042.2 |
| 20260506215051 | 88 | 210 | 7.0 | 13.9 | 0.00 | 0.00 | 0.00 | 55 | 1042.4 |
| 20260506214550 | 88 | 302 | 4.3 | 11.3 | 0.00 | 0.00 | 0.00 | 54 | 1042.2 |
| 20260506214050 | 88 | 253 | 4.3 | 11.3 | 0.00 | 0.00 | 0.00 | 52 | 1042.3 |
| 20260506213549 | 88 | 288 | 6.1 | 11.3 | 0.00 | 0.00 | 0.00 | 50 | 1042.4 |